Zurück zum Katalog

EXPLORER 50

IMP-8

LostWissenschaftMEO
NORAD 6893·PAYLOAD·🇺🇸 United States

Gestartet Oct 26, 1973 von Cape Canaveral Space Force Station

Loading…

Nächste Überflüge (nächste 24 Stunden)

TLE

VeraltetSource: Space-Track

Epoche: Jul 15, 2025, 13:53 UTC

1 06893U 73078A   25196.57914163 -.00001058  00000-0  00000-0 0  9995
2 06893   9.0739 118.5325 1991774 108.5150   0.8671  0.08284795 11624

Verfolge EXPLORER 50 in Echtzeit mit AllMySat

Download on the App Store